Newport News, VA

3:25 AM EDT on August 25, 2019 (GMT -0400)
Newport News-Williamsburg International

Weather History for KPHF - July, 2019

Change the Weather History Date:

Tuesday, July 16, 2019

  Actual Average Record
Temperature  
Mean Temperature 83 °F -  
Max Temperature 93 °F 87 °F 99 °F (2005)
Min Temperature 73 °F 71 °F 57 °F (2001)
Cooling Degree Days 18    
Growing Degree Days 33 (Base 50)    
Moisture  
Dew Point 73 °F    
Average Humidity 69    
Maximum Humidity 91    
Minimum Humidity 55    
Precipitation  
Precipitation 0.00 in - - ()
Sea Level Pressure  
Sea Level Pressure 30.07 in    
Wind  
Wind Speed 4 mph (SSW)    
Max Wind Speed 16 mph    
Max Gust Speed -    
Visibility 10 miles    
Events Rain , Thunderstorm    
Averages and records for this station are not official NWS values.
T = Trace of Precipitation, MM = Missing Value Source: NWS Daily Summary

Daily Weather History Graph

Daily Weather History Graph

Search for Another Location

Airport or City:

Astronomy

Jul. 16, 2019 Rise Set
Actual Time 5:58 AM EDT 8:25 PM EDT
Civil Twilight 5:28 AM EDT 8:55 PM EDT
Nautical Twilight 4:51 AM EDT 9:32 PM EDT
Astronomical Twilight 4:10 AM EDT 10:13 PM EDT
Moon 8:29 PM EDT (7/16) 5:35 AM EDT (7/16)
Length of Visible Light 15h 27m
Length of Day
14h 27m
Full, 100% of the Moon is Illuminated
Jul 16
Full
Jul 16
Full
Jul 24
Last Quarter
Jul 31
New
Aug 7
First Quarter

Hourly Weather History & Observations

Time (EDT) Temp. Heat Index Dew Point Humidity Pressure Visibility Wind Dir Wind Speed Gust Speed Precip Events Conditions
12:54 AM 78.1 °F - 71.1 °F 79% 30.08 in 10.0 mi Calm Calm - N/A   Clear
1:54 AM 79.0 °F - 72.0 °F 79% 30.07 in 10.0 mi South 5.8 mph - N/A   Clear
2:54 AM 79.0 °F - 72.0 °F 79% 30.06 in 10.0 mi South 3.5 mph - N/A   Clear
3:54 AM 77.0 °F - 70.0 °F 79% 30.06 in 10.0 mi Calm Calm - N/A   Clear
4:54 AM 75.0 °F - 71.1 °F 87% 30.06 in 10.0 mi Calm Calm - N/A   Clear
5:54 AM 73.9 °F - 71.1 °F 91% 30.08 in 10.0 mi Calm Calm - N/A   Partly Cloudy
6:54 AM 77.0 °F - 73.0 °F 88% 30.10 in 10.0 mi Calm Calm - N/A   Mostly Cloudy
7:54 AM 81.0 °F 86.2 °F 73.9 °F 79% 30.10 in 10.0 mi SSW 6.9 mph - N/A   Clear
8:54 AM 84.0 °F 91.9 °F 75.0 °F 74% 30.10 in 10.0 mi SW 6.9 mph - N/A   Clear
9:54 AM 86.0 °F 96.0 °F 75.9 °F 72% 30.10 in 10.0 mi SSE 3.5 mph - N/A   Clear
10:54 AM 90.0 °F 102.5 °F 77.0 °F 65% 30.10 in 10.0 mi Variable 4.6 mph - N/A   Clear
11:54 AM 90.0 °F 100.2 °F 75.0 °F 61% 30.10 in 10.0 mi SW 8.1 mph - N/A   Clear
12:54 PM 91.0 °F 101.6 °F 75.0 °F 59% 30.09 in 10.0 mi West 6.9 mph - N/A   Clear
1:34 PM 91.9 °F 103.9 °F 75.9 °F 59% 30.08 in 10.0 mi WSW 6.9 mph - N/A Thunderstorm Scattered Clouds
1:54 PM 91.9 °F 105.9 °F 77.0 °F 62% 30.07 in 10.0 mi WSW 5.8 mph - N/A Thunderstorm Partly Cloudy
2:54 PM 91.0 °F 102.9 °F 75.9 °F 61% 30.06 in 10.0 mi SSW 9.2 mph - N/A Thunderstorm Clear
3:11 PM 91.0 °F 101.6 °F 75.0 °F 59% 30.06 in 10.0 mi SSW 5.8 mph - N/A Thunderstorm Thunderstorm
3:26 PM 93.0 °F 105.3 °F 75.9 °F 57% 30.05 in 10.0 mi SSW 5.8 mph - N/A Thunderstorm Clear
3:37 PM 91.9 °F 103.9 °F 75.9 °F 59% 30.05 in 10.0 mi SSW 8.1 mph - N/A   Clear
3:54 PM 93.0 °F 105.3 °F 75.9 °F 57% 30.06 in 10.0 mi South 6.9 mph - N/A   Clear
4:49 PM 89.6 °F 96.2 °F 71.6 °F 55% 30.04 in 10.0 mi SSE 16.1 mph - N/A   Clear
4:54 PM 88.0 °F 94.7 °F 72.0 °F 59% 30.04 in 10.0 mi SSE 13.8 mph - N/A   Clear
5:54 PM 84.9 °F 88.8 °F 69.1 °F 59% 30.04 in 10.0 mi South 10.4 mph - N/A   Partly Cloudy
6:54 PM 82.0 °F 84.9 °F 68.0 °F 62% 30.06 in 10.0 mi SSW 11.5 mph - N/A   Clear
7:54 PM 82.0 °F 85.9 °F 70.0 °F 67% 30.06 in 10.0 mi SSW 5.8 mph - N/A   Clear
8:54 PM 82.0 °F 84.5 °F 66.9 °F 60% 30.06 in 10.0 mi West 11.5 mph - N/A   Clear
9:54 PM 80.1 °F 82.9 °F 69.1 °F 69% 30.08 in 10.0 mi West 5.8 mph - 0.00 in   Partly Cloudy
10:54 PM 79.0 °F - 72.0 °F 79% 30.08 in 10.0 mi Calm Calm - 0.00 in Rain Light Rain
11:54 PM 78.1 °F - 73.9 °F 87% 30.07 in 10.0 mi South 4.6 mph - 0.00 in   Clear